Weather in Ichinskiy

Russia / Kamchatka Krai     55°36′35″N   155°36′46″E
temp.,
°C
wind,
m/s
gust,
m/s
humid.,
%
clouds,
%
prec.,
mm/h
press.,
hPa
HPBL,
m
28 february, sun
sun2823:00−11nne5793100 0.0 1011191
02:00−14nne459489 0.0 101090
05:00−14nne339650 0.0 100858
08:00−12nne339199 0.0 1008125
11:00−9nne3384100 0.0 1006181
14:00−8n4591100 0.1 1004269
17:00−8nnw3490100 0.1 1002189
20:00−8wnw3494100 0.1 1001105
1 march, mon
mon123:00−11n5792100 0.1 999155
02:00−13nne4494100 0.0 998112
05:00−14nne699294 0.0 998178
08:00−16nne699669 0.0 999206
11:00−14nne579384 0.0 999273
14:00−13nne5692100 0.1 999380
17:00−14nne5791100 0.1 1001485
20:00−15nne6893100 0.2 1004467
2 march, tue
tue223:00−15nne5794100 0.4 1006410
02:00−16ne4693100 0.2 1008285
05:00−16ese2293100 0.3 1011123
08:00−16se4596100 0.0 1014138
11:00−12sse7993100 0.1 1015331
14:00−7wsw111380100 0.5 10171070
17:00−8sw81179100 0.7 1019617
20:00−9sw6107996 0.3 1023336
3 march, wed
wed323:00−9ssw588398 0.5 1025497
02:00−10s3481100 0.1 1023325
05:00−11se4591100 0.2 1020188
08:00−11ne6991100 0.3 1014467
11:00−11ne121694100 3.3 1004551
14:00−9ne71095100 8.8 993358
17:00−6ene71195100 14.4 983509
20:00−4ene5996100 11.1 974326
4 march, thu
thu423:00−4se5896100 19.4 969293
02:00−9wnw202589100 5.1 9791330
05:00−10w141880100 5.9 9911822
08:00−12w151783100 0.8 9961925
11:00−11w152079100 1.1 10002126
14:00−9wsw151977100 0.4 10012133
17:00−8wsw121785100 0.8 10001738
20:00−7wsw101586100 1.1 9981245